Погода в Сузуне

Россия / Новосибирская область     53°47′20″N   82°18′58″E
темп.,
°C
ветер,
м/с
пор.,
м/с
влажн.,
%
обл.,
%
осадки,
мм/ч
давл.,
гПа
погр.,
м
21 апреля, ср
ср2101:00−5юз12715 0.0 102649
04:00−4юз266293 0.0 1024217
07:00−3юз3756100 0.0 1023503
10:00−1юз5740100 0.0 10231197
13:00+1зюз5751100 0.0 10211529
16:00+2юз4566100 0.1 10211217
19:00+1зсз2491100 1.6 1022389
22:00−1ссв4797100 2.3 1025455
22 апреля, чт
чт2201:00−3св499170 3.5 1028363
04:00−3св39926 0.0 1031384
07:00−3ссв310885 0.0 1034393
10:00+1св59581 0.0 10371020
13:00+3св684982 0.0 10381922
16:00+3ссв6848100 0.0 10402156
19:00+2ссв58595 0.1 10411305
22:00−1ссв311765 0.0 1044369
23 апреля, пт
пт2301:00−2ссв411835 0.0 1044369
04:00−2ссв410875 0.0 1044364
07:00−2ссв410875 0.0 1044412
10:00+2ссв58635 0.0 1044996
13:00+5св575083 0.0 10431765
16:00+6св5846100 0.0 10412127
19:00+5ссв48597 0.0 1041687
22:000ссв39835 0.0 1041183
24 апреля, сб
сб2401:00−1ссв310855 0.0 1040273
04:00−1ссв310855 0.0 1038279
07:00−1с4108448 0.0 1038305
10:00+3с5868100 0.0 1037668
13:00+6с5656100 0.0 10351667
16:00+6с4651100 0.1 10341748
19:00+6с355896 0.1 1033989
22:00+2с2275100 0.0 103421
25 апреля, вс
вс2501:000с22796 0.0 103327
04:000с22845 0.0 103335
07:000с23831 0.0 103469
10:00+6ссв12605 0.0 1033697
13:00+9сз014881 0.0 10321463
16:00+10зюз0142100 0.0 10301764
19:00+9с0146100 0.0 10301132
22:00+5всв2268100 0.0 103046